sat.trackr.live / text

‹ back to catalog

STARLINK-36037

NORAD 66613 · 2025-270AB

PAYLOAD ACTIVE UNKNOWN

§ Identity

Operator
Country
US
Launch date
2025-11-22
Launch site
AFETR
Launch vehicle
Mass (kg)
RCS (m²)

Purposes: comms

External: N2YO · Heavens-Above · Gunter

§ Orbital elements

Epoch: 2026-05-24T22:03:07.019136Z

Period
94.27 min
Inclination
43.0010°
Eccentricity
0.0000914
Mean motion
15.27597120 rev/d
Perigee alt
482.4 km
Apogee alt
483.6 km
Semi-major
6,861.1 km
B*
5.7502e-4
RAAN
345.7263°
Arg perigee
252.5904°
Mean anomaly
107.4848°
Rev number
2,936

§ Raw data

STARLINK-360371 66613U 25270AB  26144.91883124  .00015603  00000+0  57502-3 0  99972 66613  43.0010 345.7263 0000914 252.5904 107.4848 15.27597120 29364

JSON: /api/v1/satellites/66613 · /tle

For live sub-satellite position, see the globe view (requires WebGL).

§ Visibility from observer

Set your observer location to see the next 7 days of passes ≥ 10°. The values pass through the URL so the page stays shareable.

No JS? Fill the form by hand. The geolocation button needs JavaScript.